Weather History for KBAF - May, 2013

Change the Weather History Date:

Sunday, May 5, 2013

  Actual Average Record
Temperature  
Mean Temperature 53 °F -  
Max Temperature 73 °F 65 °F 84 °F (2000)
Min Temperature 35 °F 42 °F 28 °F (2004)
Degree Days  
Heating Degree Days 12    
Growing Degree Days 3 (Base 50)    
Moisture  
Dew Point 33 °F    
Average Humidity 51    
Maximum Humidity 82    
Minimum Humidity 21    
Precipitation  
Precipitation 0.00 in - - ()
Sea Level Pressure  
Sea Level Pressure 30.27 in    
Wind  
Wind Speed 3 mph (ESE)    
Max Wind Speed 10 mph    
Max Gust Speed -    
Visibility 10 miles    
Events      
Averages and records for this station are not official NWS values.
T = Trace of Precipitation, MM = Missing Value Source: NWS Daily Summary

Daily Weather History Graph

Daily Weather History Graph

Search for Another Location

Airport or City:

Trip Planner

Search our weather history database for the weather conditions in past years. The results will help you decide how hot, cold, wet, or windy it might be!

Date:

Astronomy

May. 05, 2013 Rise Set
Actual Time 5:41 AM EDT 7:54 PM EDT
Civil Twilight 5:10 AM EDT 8:25 PM EDT
Nautical Twilight 4:31 AM EDT 9:04 PM EDT
Astronomical Twilight 3:49 AM EDT 9:46 PM EDT
Moon 3:14 AM EDT 3:47 PM EDT
Length of Visible Light 15h 15m
Length of Day
14h 13m
Waning Crescent, 18% of the Moon is Illuminated
May 5
Waning Crescent
May 9
New
May 18
First Quarter
May 25
Full
May 31
Last Quarter

Hourly Weather History & Observations

Time (EDT) Temp. Windchill Dew Point Humidity Pressure Visibility Wind Dir Wind Speed Gust Speed Precip Events Conditions
12:53 AM 46.0 °F - 26.1 °F 46% 30.31 in 10.0 mi Calm Calm - N/A   Clear
1:53 AM 43.0 °F - 30.0 °F 60% 30.31 in 10.0 mi Calm Calm - N/A   Clear
2:53 AM 43.0 °F - 30.9 °F 62% 30.31 in 10.0 mi Calm Calm - N/A   Clear
3:53 AM 39.0 °F - 30.9 °F 73% 30.31 in 10.0 mi Calm Calm - N/A   Clear
4:53 AM 36.0 °F 32.1 °F 30.0 °F 79% 30.31 in 10.0 mi North 4.6 mph - N/A   Clear
5:53 AM 35.1 °F 32.2 °F 30.0 °F 82% 30.32 in 10.0 mi NNW 3.5 mph - N/A   Clear
6:53 AM 39.9 °F - 34.0 °F 79% 30.33 in 10.0 mi Calm Calm - N/A   Clear
7:53 AM 46.0 °F 42.5 °F 34.0 °F 63% 30.32 in 10.0 mi North 6.9 mph - N/A   Clear
8:53 AM 50.0 °F - 34.0 °F 54% 30.32 in 10.0 mi NNW 6.9 mph - N/A   Clear
9:53 AM 53.1 °F - 34.0 °F 48% 30.32 in 10.0 mi Variable 3.5 mph - N/A   Clear
10:53 AM 55.9 °F - 33.1 °F 42% 30.30 in 10.0 mi Variable 3.5 mph - N/A   Clear
11:53 AM 59.0 °F - 33.1 °F 38% 30.28 in 10.0 mi SSW 3.5 mph - N/A   Clear
12:53 PM 63.0 °F - 32.0 °F 31% 30.26 in 10.0 mi East 6.9 mph - N/A   Clear
1:53 PM 66.0 °F - 30.9 °F 27% 30.25 in 10.0 mi ENE 9.2 mph - N/A   Clear
2:53 PM 69.1 °F - 30.9 °F 24% 30.22 in 10.0 mi Variable 3.5 mph - N/A   Clear
3:53 PM 70.0 °F - 30.0 °F 23% 30.20 in 10.0 mi ENE 6.9 mph - N/A   Clear
4:53 PM 71.1 °F - 30.0 °F 22% 30.19 in 10.0 mi East 6.9 mph - N/A   Clear
5:53 PM 71.1 °F - 28.9 °F 21% 30.19 in 10.0 mi ENE 5.8 mph - N/A   Clear
6:53 PM 69.1 °F - 33.1 °F 26% 30.19 in 10.0 mi East 3.5 mph - N/A   Clear
7:53 PM 61.0 °F - 42.1 °F 50% 30.21 in 10.0 mi South 10.4 mph - N/A   Clear
8:53 PM 55.0 °F - 41.0 °F 59% 30.24 in 10.0 mi South 9.2 mph - N/A   Clear
9:53 PM 52.0 °F - 39.9 °F 63% 30.26 in 10.0 mi South 10.4 mph - N/A   Clear
10:53 PM 48.9 °F - 39.9 °F 71% 30.27 in 10.0 mi South 5.8 mph - N/A   Clear
11:53 PM 46.0 °F 44.8 °F 37.9 °F 73% 30.27 in 10.0 mi South 3.5 mph - N/A   Clear